Time,TemperatureF,DewpointF,PressureIn,WindDirection,WindDirectionDegrees,WindSpeedMPH,WindSpeedGustMPH,Humidity,HourlyPrecipIn,Conditions,Clouds,dailyrainin,SolarRadiationWatts/m^2,SoftwareType,DateUTC
2013-10-10 00:02:00,47.0,37.0,-100.00,SSE,168,9.0,20.0,67,0.00,,,-99.99,0.000000,,2013-10-10 07:02:00,
2013-10-10 00:42:00,46.0,27.0,-100.00,SW,221,6.0,22.0,48,0.00,,,0.03,0.000000,,2013-10-10 07:42:00,
2013-10-10 00:52:00,46.0,27.0,-100.00,SW,221,6.0,22.0,48,0.00,,,0.03,0.000000,,2013-10-10 07:52:00,
2013-10-10 01:02:00,46.0,27.0,-100.00,SW,221,6.0,22.0,48,0.00,,,0.03,0.000000,,2013-10-10 08:02:00,
2013-10-10 01:43:00,40.0,31.0,-100.00,SSE,152,7.0,21.0,71,0.02,,,0.05,0.000000,,2013-10-10 08:43:00,
2013-10-10 01:52:00,40.0,31.0,-100.00,SSE,152,7.0,21.0,71,0.02,,,0.05,0.000000,,2013-10-10 08:52:00,
2013-10-10 02:01:00,40.0,31.0,-100.00,SSE,152,7.0,21.0,71,0.02,,,0.05,0.000000,,2013-10-10 09:01:00,
2013-10-10 02:43:00,39.0,35.0,-100.00,ESE,117,2.0,11.0,85,0.02,,,0.07,0.000000,,2013-10-10 09:43:00,
2013-10-10 02:53:00,39.0,35.0,-100.00,ESE,117,2.0,11.0,85,0.02,,,0.07,0.000000,,2013-10-10 09:53:00,
2013-10-10 03:03:00,39.0,35.0,-100.00,ESE,117,2.0,11.0,85,0.02,,,0.07,0.000000,,2013-10-10 10:03:00,
2013-10-10 03:43:00,35.0,32.0,-100.00,WSW,257,6.0,16.0,87,0.01,,,0.08,0.000000,,2013-10-10 10:43:00,
2013-10-10 03:53:00,35.0,32.0,-100.00,WSW,257,6.0,16.0,87,0.01,,,0.08,0.000000,,2013-10-10 10:53:00,
2013-10-10 04:02:00,35.0,32.0,-100.00,WSW,257,6.0,16.0,87,0.01,,,0.08,0.000000,,2013-10-10 11:02:00,
2013-10-10 07:42:00,32.0,32.0,-100.00,SW,228,2.0,4.0,98,-99.99,,,0.08,0.000000,,2013-10-10 14:42:00,
2013-10-10 07:52:00,32.0,32.0,-100.00,SW,228,2.0,4.0,98,-99.99,,,0.08,0.000000,,2013-10-10 14:52:00,
2013-10-10 08:02:00,32.0,32.0,-100.00,SW,228,2.0,4.0,98,-99.99,,,0.08,0.000000,,2013-10-10 15:02:00,
2013-10-10 08:43:00,33.0,32.0,-100.00,SSW,210,2.0,6.0,97,0.00,,,0.08,4.000000,,2013-10-10 15:43:00,
2013-10-10 08:54:00,33.0,32.0,-100.00,SSW,210,2.0,6.0,97,0.00,,,0.08,4.000000,,2013-10-10 15:54:00,
2013-10-10 09:03:00,33.0,32.0,-100.00,SSW,210,2.0,6.0,97,0.00,,,0.08,4.000000,,2013-10-10 16:03:00,
2013-10-10 09:42:00,41.0,40.0,-100.00,South,181,2.0,8.0,95,0.00,,,0.08,68.000000,,2013-10-10 16:42:00,
2013-10-10 09:53:00,41.0,40.0,-100.00,South,181,2.0,8.0,95,0.00,,,0.08,68.000000,,2013-10-10 16:53:00,
2013-10-10 10:02:00,41.0,40.0,-100.00,South,181,2.0,8.0,95,0.00,,,0.08,68.000000,,2013-10-10 17:02:00,
2013-10-10 10:42:00,37.0,34.0,-100.00,SSW,197,3.0,8.0,89,0.23,,,0.31,281.000000,,2013-10-10 17:42:00,
2013-10-10 10:52:00,37.0,34.0,-100.00,SSW,197,3.0,8.0,89,0.23,,,0.31,281.000000,,2013-10-10 17:52:00,
2013-10-10 11:02:00,37.0,34.0,-100.00,SSW,197,3.0,8.0,89,0.23,,,0.31,281.000000,,2013-10-10 18:02:00,
2013-10-10 11:42:00,37.0,35.0,-100.00,West,263,4.0,9.0,91,0.14,,,0.45,214.000000,,2013-10-10 18:42:00,
2013-10-10 11:52:00,37.0,35.0,-100.00,West,263,4.0,9.0,91,0.14,,,0.45,214.000000,,2013-10-10 18:52:00,
2013-10-10 12:01:00,37.0,35.0,-100.00,West,263,4.0,9.0,91,0.14,,,0.45,214.000000,,2013-10-10 19:01:00,
2013-10-10 12:42:00,40.0,37.0,-100.00,WSW,249,5.0,10.0,89,0.16,,,0.61,322.000000,,2013-10-10 19:42:00,
2013-10-10 12:53:00,40.0,37.0,-100.00,WSW,249,5.0,10.0,89,0.16,,,0.61,322.000000,,2013-10-10 19:53:00,
2013-10-10 13:02:00,40.0,37.0,-100.00,WSW,249,5.0,10.0,89,0.16,,,0.61,322.000000,,2013-10-10 20:02:00,
2013-10-10 13:42:00,41.0,37.0,-100.00,WSW,255,5.0,10.0,87,0.06,,,0.67,386.000000,,2013-10-10 20:42:00,
2013-10-10 13:52:00,41.0,37.0,-100.00,WSW,255,5.0,10.0,87,0.06,,,0.67,386.000000,,2013-10-10 20:52:00,
2013-10-10 14:03:00,41.0,37.0,-100.00,WSW,255,5.0,10.0,87,0.06,,,0.67,386.000000,,2013-10-10 21:03:00,
2013-10-10 14:44:00,44.0,39.0,-100.00,West,261,4.0,16.0,81,0.01,,,0.68,358.000000,,2013-10-10 21:44:00,
2013-10-10 14:54:00,44.0,39.0,-100.00,West,261,4.0,16.0,81,0.01,,,0.68,358.000000,,2013-10-10 21:54:00,
2013-10-10 15:03:00,44.0,39.0,-100.00,West,261,4.0,16.0,81,0.01,,,0.68,358.000000,,2013-10-10 22:03:00,
2013-10-10 15:43:00,41.0,34.0,-100.00,WSW,256,5.0,14.0,77,0.00,,,0.68,212.000000,,2013-10-10 22:43:00,
2013-10-10 15:53:00,41.0,34.0,-100.00,WSW,256,5.0,14.0,77,0.00,,,0.68,212.000000,,2013-10-10 22:53:00,
2013-10-10 16:03:00,41.0,34.0,-100.00,WSW,256,5.0,14.0,77,0.00,,,0.68,212.000000,,2013-10-10 23:03:00,
2013-10-10 16:43:00,39.0,32.0,-100.00,WSW,255,6.0,16.0,77,0.00,,,0.68,106.000000,,2013-10-10 23:43:00,
2013-10-10 16:52:00,39.0,32.0,-100.00,WSW,255,6.0,16.0,77,0.00,,,0.68,106.000000,,2013-10-10 23:52:00,
2013-10-10 17:02:00,39.0,32.0,-100.00,WSW,255,6.0,16.0,77,0.00,,,0.68,106.000000,,2013-10-11 00:02:00,
2013-10-10 17:42:00,39.0,33.0,-100.00,WSW,252,4.0,12.0,80,0.00,,,0.68,67.000000,,2013-10-11 00:42:00,
2013-10-10 17:52:00,39.0,33.0,-100.00,WSW,252,4.0,12.0,80,0.00,,,0.68,67.000000,,2013-10-11 00:52:00,
2013-10-10 18:01:00,39.0,33.0,-100.00,WSW,252,4.0,12.0,80,0.00,,,0.68,67.000000,,2013-10-11 01:01:00,
2013-10-10 18:42:00,38.0,34.0,-100.00,West,260,3.0,8.0,84,0.00,,,0.68,18.000000,,2013-10-11 01:42:00,
2013-10-10 18:52:00,38.0,34.0,-100.00,West,260,3.0,8.0,84,0.00,,,0.68,18.000000,,2013-10-11 01:52:00,
2013-10-10 19:02:00,38.0,34.0,-100.00,West,260,3.0,8.0,84,0.00,,,0.68,18.000000,,2013-10-11 02:02:00,
2013-10-10 19:42:00,38.0,35.0,-100.00,West,262,3.0,6.0,88,0.00,,,0.68,0.000000,,2013-10-11 02:42:00,
2013-10-10 19:52:00,38.0,35.0,-100.00,West,262,3.0,6.0,88,0.00,,,0.68,0.000000,,2013-10-11 02:52:00,
2013-10-10 20:02:00,38.0,35.0,-100.00,West,262,3.0,6.0,88,0.00,,,0.68,0.000000,,2013-10-11 03:02:00,
2013-10-10 20:45:00,36.0,33.0,-100.00,WSW,248,2.0,8.0,89,0.00,,,0.68,0.000000,,2013-10-11 03:45:00,
2013-10-10 20:54:00,36.0,33.0,-100.00,WSW,248,2.0,8.0,89,0.00,,,0.68,0.000000,,2013-10-11 03:54:00,
2013-10-10 21:04:00,36.0,33.0,-100.00,WSW,248,2.0,8.0,89,0.00,,,0.68,0.000000,,2013-10-11 04:04:00,
2013-10-10 21:44:00,33.0,32.0,-100.00,South,182,1.0,5.0,95,0.00,,,0.68,0.000000,,2013-10-11 04:44:00,
2013-10-10 21:53:00,33.0,32.0,-100.00,South,182,1.0,5.0,95,0.00,,,0.68,0.000000,,2013-10-11 04:53:00,
2013-10-10 22:03:00,33.0,32.0,-100.00,South,182,1.0,5.0,95,0.00,,,0.68,0.000000,,2013-10-11 05:03:00,
2013-10-10 22:43:00,30.0,29.0,-100.00,ENE,64,1.0,2.0,96,0.00,,,0.65,0.000000,,2013-10-11 05:43:00,
2013-10-10 22:52:00,30.0,29.0,-100.00,ENE,64,1.0,2.0,96,0.00,,,0.65,0.000000,,2013-10-11 05:52:00,
2013-10-10 23:02:00,30.0,29.0,-100.00,ENE,64,1.0,2.0,96,0.00,,,0.65,0.000000,,2013-10-11 06:02:00,
2013-10-10 23:43:00,30.0,29.0,-100.00,North,0,1.0,3.0,97,0.00,,,0.65,0.000000,,2013-10-11 06:43:00,
2013-10-10 23:52:00,30.0,29.0,-100.00,North,0,1.0,3.0,97,0.00,,,0.65,0.000000,,2013-10-11 06:52:00,